• In Latvia
  • List of Countries
  • For 7 days
  • Water Temperature
  • Satellite Maps
  • Weather Map
  • Weather Widgets
  • user-avatar
    Login

    Hourly Weather Barra

    Today, 19 August, Saturday

    Time Temperature Precipitation Wind Pressure Humidity
    00:00 +21°C° 0 mm 1 mps 751 mmHg 76%
    01:00 +21°C° 0 mm 1 mps 751 mmHg 73%
    02:00 +20°C° 0 mm 1 mps 751 mmHg 72%
    03:00 +20°C° 0 mm 1 mps 751 mmHg 70%
    04:00 +20°C° 0 mm 1 mps 750 mmHg 65%
    05:00 +19°C° 0 mm 2 mps 751 mmHg 62%
    06:00 +19°C° 0 mm 2 mps 751 mmHg 59%
    07:00 +19°C° 0 mm 2 mps 751 mmHg 56%
    08:00 +23°C° 0 mm 2 mps 751 mmHg 47%
    09:00 +26°C° 0 mm 3 mps 752 mmHg 39%
    10:00 +31°C° 0 mm 2 mps 752 mmHg 36%
    11:00 +31°C° 0 mm 2 mps 751 mmHg 33%
    12:00 +33°C° 0 mm 3 mps 751 mmHg 30%
    13:00 +34°C° 0 mm 4 mps 751 mmHg 28%
    14:00 +33°C° 0 mm 4 mps 750 mmHg 31%
    15:00 +32°C° 0 mm 4 mps 750 mmHg 35%
    16:00 +30°C° 0 mm 5 mps 750 mmHg 39%
    17:00 +27°C° 0 mm 4 mps 750 mmHg 52%
    18:00 +25°C° 0 mm 3 mps 750 mmHg 64%
    19:00 +21°C° 0 mm 3 mps 751 mmHg 77%
    20:00 +20°C° 0 mm 3 mps 751 mmHg 80%
    21:00 +20°C° 0 mm 3 mps 751 mmHg 84%
    22:00 +19°C° 0 mm 3 mps 752 mmHg 87%
    23:00 +19°C° 0 mm 3 mps 752 mmHg 89%

    Tomorrow, 20 August, Sunday

    Time Temperature Precipitation Wind Pressure Humidity
    00:00 +18°C° 0 mm 3 mps 752 mmHg 90%
    01:00 +18°C° 0 mm 3 mps 752 mmHg 91%
    02:00 +18°C° 0 mm 3 mps 752 mmHg 90%
    03:00 +17°C° 0 mm 3 mps 751 mmHg 89%
    04:00 +17°C° 0 mm 3 mps 751 mmHg 88%
    05:00 +17°C° 0 mm 3 mps 752 mmHg 83%
    06:00 +16°C° 0 mm 3 mps 752 mmHg 77%
    07:00 +16°C° 0 mm 3 mps 752 mmHg 71%
    08:00 +19°C° 0 mm 4 mps 752 mmHg 59%
    09:00 +21°C° 0 mm 4 mps 753 mmHg 48%
    10:00 +25°C° 0 mm 4 mps 753 mmHg 36%
    11:00 +25°C° 0 mm 5 mps 752 mmHg 35%
    12:00 +26°C° 0 mm 5 mps 752 mmHg 33%
    13:00 +26°C° 0 mm 5 mps 751 mmHg 32%
    14:00 +26°C° 0 mm 4 mps 751 mmHg 36%
    15:00 +25°C° 0 mm 4 mps 750 mmHg 41%
    16:00 +25°C° 0 mm 4 mps 750 mmHg 46%
    17:00 +22°C° 0 mm 3 mps 750 mmHg 55%
    18:00 +20°C° 0 mm 3 mps 751 mmHg 65%
    19:00 +17°C° 0 mm 2 mps 751 mmHg 75%
    20:00 +17°C° 0 mm 2 mps 751 mmHg 78%
    21:00 +16°C° 0 mm 2 mps 752 mmHg 81%
    22:00 +16°C° 0 mm 2 mps 752 mmHg 84%
    23:00 +16°C° 0 mm 3 mps 752 mmHg 84%

    Day after tomorrow, 21 August, Monday

    Time Temperature Precipitation Wind Pressure Humidity
    00:00 +16°C° 0 mm 3 mps 752 mmHg 84%
    01:00 +16°C° 0 mm 3 mps 752 mmHg 85%
    02:00 +16°C° 0 mm 3 mps 751 mmHg 84%
    03:00 +16°C° 0 mm 3 mps 751 mmHg 83%
    04:00 +16°C° 0 mm 3 mps 751 mmHg 82%
    05:00 +16°C° 0 mm 3 mps 751 mmHg 81%
    06:00 +16°C° 0 mm 3 mps 752 mmHg 80%
    07:00 +16°C° 0 mm 3 mps 752 mmHg 79%
    08:00 +18°C° 0 mm 3 mps 753 mmHg 70%
    09:00 +20°C° 0 mm 4 mps 753 mmHg 61%
    10:00 +23°C° 0 mm 4 mps 753 mmHg 52%
    11:00 +25°C° 0 mm 4 mps 752 mmHg 50%
    12:00 +25°C° 0 mm 3 mps 752 mmHg 48%
    13:00 +26°C° 0 mm 3 mps 751 mmHg 46%
    14:00 +26°C° 0 mm 3 mps 751 mmHg 48%
    15:00 +26°C° 0 mm 3 mps 750 mmHg 50%
    16:00 +25°C° 0 mm 3 mps 750 mmHg 51%
    17:00 +23°C° 0 mm 2 mps 750 mmHg 61%
    18:00 +20°C° 0 mm 2 mps 751 mmHg 71%
    19:00 +18°C° 0 mm 2 mps 751 mmHg 80%
    20:00 +18°C° 0 mm 2 mps 752 mmHg 84%
    21:00 +18°C° 0 mm 2 mps 752 mmHg 87%
    22:00 +17°C° 0 mm 2 mps 752 mmHg 91%
    23:00 +17°C° 0 mm 2 mps 752 mmHg 91%

    22 August, Tuesday

    Time Temperature Precipitation Wind Pressure Humidity
    00:00 +18°C° 0 mm 2 mps 752 mmHg 91%
    01:00 +18°C° 0 mm 2 mps 752 mmHg 91%
    02:00 +18°C° 0 mm 2 mps 751 mmHg 92%
    03:00 +18°C° 0 mm 2 mps 751 mmHg 94%
    04:00 +17°C° 0 mm 2 mps 751 mmHg 96%
    05:00 +18°C° 0 mm 2 mps 752 mmHg 95%
    06:00 +18°C° 0 mm 2 mps 752 mmHg 95%
    07:00 +18°C° 0 mm 2 mps 752 mmHg 95%
    08:00 +20°C° 0 mm 2 mps 753 mmHg 85%
    09:00 +23°C° 0 mm 2 mps 753 mmHg 75%
    10:00 +26°C° 0 mm 2 mps 753 mmHg 66%
    11:00 +27°C° 0 mm 3 mps 752 mmHg 61%
    12:00 +27°C° 0 mm 3 mps 752 mmHg 57%
    13:00 +28°C° 0 mm 3 mps 751 mmHg 53%
    14:00 +28°C° 0 mm 3 mps 751 mmHg 54%
    15:00 +28°C° 0 mm 3 mps 750 mmHg 55%
    16:00 +27°C° 0 mm 3 mps 750 mmHg 55%
    17:00 +25°C° 0 mm 3 mps 751 mmHg 65%
    18:00 +23°C° 0 mm 2 mps 751 mmHg 75%
    19:00 +20°C° 0 mm 2 mps 752 mmHg 85%
    20:00 +20°C° 0 mm 2 mps 752 mmHg 88%
    21:00 +19°C° 0 mm 2 mps 753 mmHg 91%
    22:00 +19°C° 0 mm 2 mps 753 mmHg 94%
    23:00 +19°C° 0 mm 2 mps 753 mmHg 94%

    23 August, Wednesday

    Time Temperature Precipitation Wind Pressure Humidity
    00:00 +19°C° 0 mm 2 mps 753 mmHg 93%
    01:00 +20°C° 0 mm 2 mps 752 mmHg 93%
    02:00 +20°C° 0 mm 2 mps 752 mmHg 93%
    03:00 +20°C° 0 mm 2 mps 752 mmHg 93%
    04:00 +20°C° 0 mm 2 mps 752 mmHg 93%
    05:00 +20°C° 0 mm 2 mps 752 mmHg 93%
    06:00 +20°C° 0 mm 2 mps 752 mmHg 94%
    07:00 +19°C° 0 mm 2 mps 753 mmHg 95%
    08:00 +21°C° 0 mm 2 mps 753 mmHg 84%
    09:00 +24°C° 0 mm 2 mps 753 mmHg 73%
    10:00 +26°C° 0 mm 2 mps 753 mmHg 62%
    11:00 +27°C° 0 mm 3 mps 752 mmHg 58%
    12:00 +28°C° 0 mm 3 mps 752 mmHg 53%
    13:00 +29°C° 0 mm 3 mps 751 mmHg 49%
    14:00 +29°C° 0 mm 3 mps 751 mmHg 50%
    15:00 +28°C° 0 mm 3 mps 751 mmHg 51%
    16:00 +28°C° 0 mm 3 mps 750 mmHg 52%
    17:00 +26°C° 0 mm 3 mps 751 mmHg 63%
    18:00 +22°C° 0 mm 3 mps 751 mmHg 73%
    19:00 +20°C° 0 mm 2 mps 752 mmHg 83%
    20:00 +20°C° 0 mm 2 mps 752 mmHg 87%
    21:00 +19°C° 0 mm 2 mps 752 mmHg 90%
    22:00 +19°C° 0 mm 2 mps 752 mmHg 93%
    23:00 +19°C° 0 mm 2 mps 752 mmHg 94%

    24 August, Thursday

    Time Temperature Precipitation Wind Pressure Humidity
    00:00 +18°C° 0 mm 2 mps 752 mmHg 95%
    01:00 +18°C° 0 mm 2 mps 751 mmHg 95%
    02:00 +18°C° 0 mm 2 mps 751 mmHg 95%
    03:00 +19°C° 0 mm 3 mps 751 mmHg 94%
    04:00 +19°C° 0 mm 3 mps 751 mmHg 94%
    05:00 +19°C° 0 mm 3 mps 751 mmHg 94%
    06:00 +19°C° 0 mm 3 mps 752 mmHg 94%
    07:00 +19°C° 0 mm 3 mps 752 mmHg 94%
    08:00 +21°C° 0 mm 3 mps 752 mmHg 82%
    09:00 +24°C° 0 mm 3 mps 752 mmHg 71%
    10:00 +26°C° 0 mm 3 mps 752 mmHg 60%
    11:00 +27°C° 0 mm 3 mps 752 mmHg 55%
    12:00 +28°C° 0 mm 4 mps 751 mmHg 50%
    13:00 +29°C° 0 mm 4 mps 750 mmHg 45%
    14:00 +28°C° 0 mm 4 mps 750 mmHg 45%
    15:00 +28°C° 0 mm 4 mps 750 mmHg 45%
    16:00 +27°C° 0 mm 4 mps 750 mmHg 45%
    17:00 +25°C° 0 mm 3 mps 750 mmHg 55%
    18:00 +22°C° 0 mm 3 mps 751 mmHg 65%
    19:00 +20°C° 0 mm 2 mps 751 mmHg 75%
    20:00 +19°C° 0 mm 2 mps 752 mmHg 80%
    21:00 +19°C° 0 mm 2 mps 752 mmHg 84%
    22:00 +18°C° 0 mm 2 mps 752 mmHg 89%
    23:00 +18°C° 0 mm 3 mps 752 mmHg 90%
    Show more